Weather History for Tupelo, MS

Change the Weather History Date:

Wednesday, May 13, 2009

  Actual Average Record
Temperature  
Mean Temperature 73 °F 70 °F  
Max Temperature 81 °F 81 °F 95 °F (1962)
Min Temperature 64 °F 59 °F 43 °F (1997)
Degree Days  
Heating Degree Days 0 1  
Month to date heating degree days 6 17  
Since 1 July heating degree days 2918 2949  
Cooling Degree Days 8 6  
Month to date cooling degree days 67 59  
Year to date cooling degree days 148 135  
Growing Degree Days 22 (Base 50)    
Moisture  
Dew Point 66 °F    
Average Humidity 84    
Maximum Humidity 93    
Minimum Humidity 74    
Precipitation  
Precipitation T in 0.19 in 2.08 in (1950)
Month to date precipitation 7.35 2.43  
Year to date precipitation 22.94 21.47  
Snow  
Snow 0.00 in 0.00 in - ()
Month to date snowfall 0.0  
Since 1 July snowfall 2.1  
Snow Depth -    
Sea Level Pressure  
Sea Level Pressure 30.02 in    
Wind  
Wind Speed 11 mph (South)    
Max Wind Speed 17 mph    
Max Gust Speed 24 mph    
Visibility 8 miles    
Events Rain , Thunderstorm    
T = Trace of Precipitation, MM = Missing Value Source: NWS Daily Summary

Daily Weather History Graph

Daily Weather History Graph

Search for Another Location

Airport:

Trip Planner

Search our weather history database for the weather conditions in past years. The results will help you decide how hot, cold, wet, or windy it might be!

Date:

Astronomy

May. 13, 2009 Rise Set
Actual Time 5:54 AM CDT 7:48 PM CDT
Civil Twilight 5:26 AM CDT 8:16 PM CDT
Nautical Twilight 4:53 AM CDT 8:50 PM CDT
Astronomical Twilight 4:17 AM CDT 9:25 PM CDT
Moon No Moon Rise 9:10 AM CDT (5/13)
Length of Visible Light 14h 49m
Length of Day
13h 54m
Waning Gibbous, 82% of the Moon is Illuminated
May 13
Waning Gibbous
May 17
Last Quarter
May 24
New
May 30
First Quarter
Jun 7
Full

Hourly Weather History & Observations

Time (CDT) Temp. Dew Point Humidity Pressure Visibility Wind Dir Wind Speed Gust Speed Precip Events Conditions
12:06 AM 66.2 °F 64.4 °F 94% 30.04 in 6.0 mi SW 6.9 mph - 0.01 in Rain Light Rain
12:18 AM 66.2 °F 64.4 °F 94% 30.04 in 5.0 mi SSW 9.2 mph - 0.01 in Rain Light Rain
12:35 AM 66.2 °F 64.4 °F 94% 30.03 in 7.0 mi South 6.9 mph - 0.01 in Rain Light Rain
12:53 AM 66.0 °F 64.0 °F 93% 30.02 in 8.0 mi SW 8.1 mph - 0.01 in Rain Light Rain
1:17 AM 64.4 °F 62.6 °F 94% 30.01 in 10.0 mi SSW 10.4 mph - 0.00 in   Overcast
1:41 AM 64.4 °F 62.6 °F 94% 30.00 in 10.0 mi SW 5.8 mph - 0.00 in Thunderstorm Scattered Clouds
1:53 AM 64.0 °F 63.0 °F 96% 29.99 in 10.0 mi SSW 6.9 mph - 0.00 in Thunderstorm Mostly Cloudy
2:02 AM 64.4 °F 62.6 °F 94% 29.99 in 10.0 mi SSW 8.1 mph - N/A   Mostly Cloudy
2:53 AM 64.0 °F 62.1 °F 93% 29.99 in 10.0 mi South 8.1 mph - N/A   Partly Cloudy
3:21 AM 64.4 °F 62.6 °F 94% 30.01 in 10.0 mi SSE 6.9 mph - N/A   Scattered Clouds
3:31 AM 64.4 °F 62.6 °F 94% 30.02 in 10.0 mi South 8.1 mph - N/A   Mostly Cloudy
3:53 AM 64.0 °F 62.1 °F 93% 30.01 in 10.0 mi South 9.2 mph - N/A   Mostly Cloudy
4:00 AM 64.4 °F 62.6 °F 94% 30.02 in 10.0 mi South 5.8 mph - N/A   Mostly Cloudy
4:53 AM 64.0 °F 62.1 °F 93% 30.03 in 10.0 mi South 10.4 mph - N/A   Overcast
5:53 AM 64.9 °F 63.0 °F 93% 30.03 in 10.0 mi South 8.1 mph - N/A   Overcast
6:16 AM 64.4 °F 62.6 °F 94% 30.05 in 10.0 mi South 10.4 mph - N/A   Overcast
6:53 AM 66.0 °F 64.0 °F 93% 30.05 in 9.0 mi South 9.2 mph - N/A   Overcast
7:10 AM 66.2 °F 64.4 °F 94% 30.06 in 8.0 mi South 8.1 mph - N/A   Overcast
7:31 AM 66.2 °F 64.4 °F 94% 30.07 in 7.0 mi South 8.1 mph - N/A   Overcast
7:38 AM 66.2 °F 64.4 °F 94% 30.07 in 7.0 mi South 6.9 mph - N/A   Overcast
7:53 AM 66.9 °F 64.0 °F 90% 30.06 in 7.0 mi South 9.2 mph - N/A   Overcast
8:53 AM 68.0 °F 64.9 °F 90% 30.05 in 6.0 mi South 12.7 mph - N/A   Overcast
9:53 AM 69.1 °F 64.9 °F 87% 30.06 in 5.0 mi South 10.4 mph - N/A   Overcast
10:53 AM 70.0 °F 66.9 °F 90% 30.05 in 5.0 mi South 10.4 mph 16.1 mph 0.00 in   Overcast
11:26 AM 71.6 °F 66.2 °F 83% 30.06 in 6.0 mi South 10.4 mph - 0.00 in   Overcast
11:53 AM 71.1 °F 66.9 °F 87% 30.05 in 6.0 mi South 12.7 mph - 0.00 in   Overcast
12:39 PM 73.4 °F 68.0 °F 83% 30.04 in 6.0 mi South 10.4 mph - N/A   Haze
12:53 PM 73.9 °F 68.0 °F 82% 30.03 in 6.0 mi South 11.5 mph - N/A   Haze
1:19 PM 77.0 °F 69.8 °F 78% 30.03 in 7.0 mi South 12.7 mph 19.6 mph N/A   Mostly Cloudy
1:33 PM 77.0 °F 69.8 °F 78% 30.02 in 7.0 mi South 13.8 mph 19.6 mph N/A   Mostly Cloudy
1:53 PM 78.1 °F 69.1 °F 74% 30.01 in 8.0 mi South 13.8 mph 19.6 mph N/A   Mostly Cloudy
2:53 PM 79.0 °F 69.1 °F 72% 29.99 in 9.0 mi South 11.5 mph 21.9 mph N/A   Mostly Cloudy
3:01 PM 78.8 °F 69.8 °F 74% 30.00 in 9.0 mi South 15.0 mph 19.6 mph N/A   Mostly Cloudy
3:08 PM 78.8 °F 68.0 °F 69% 30.00 in 9.0 mi South 13.8 mph 21.9 mph N/A   Mostly Cloudy
3:38 PM 78.8 °F 69.8 °F 74% 30.00 in 8.0 mi South 10.4 mph 21.9 mph N/A   Overcast
3:53 PM 79.0 °F 70.0 °F 74% 29.99 in 8.0 mi South 11.5 mph - N/A   Mostly Cloudy
4:53 PM 79.0 °F 69.1 °F 72% 29.98 in 8.0 mi South 15.0 mph 20.7 mph N/A   Clear
5:53 PM 78.1 °F 69.1 °F 74% 29.98 in 8.0 mi South 12.7 mph - N/A   Scattered Clouds
6:53 PM 77.0 °F 69.1 °F 76% 29.98 in 7.0 mi South 9.2 mph - N/A   Clear
7:53 PM 75.0 °F 69.1 °F 82% 30.00 in 7.0 mi South 9.2 mph - N/A   Clear
8:53 PM 73.9 °F 66.9 °F 79% 30.01 in 9.0 mi South 13.8 mph - N/A   Partly Cloudy
9:53 PM 72.0 °F 66.0 °F 81% 30.02 in 10.0 mi South 11.5 mph 20.7 mph N/A   Clear
10:53 PM 71.1 °F 66.0 °F 84% 30.01 in 10.0 mi South 11.5 mph - N/A   Clear
11:53 PM 70.0 °F 66.0 °F 87% 30.01 in 9.0 mi South 9.2 mph 18.4 mph N/A   Partly Cloudy